Other Public Products
Issued by NWS Grand Forks, ND

Home | Current Version | Previous Version | Text Only | Print | Product List | Glossary Off
Versions: 1 2 3 4 5 6 7 8 9 10 11 12 13 14 15 16 17 18 19 20 21 22 23 24 25 26 27 28 29 30 31 32 33 34 35 36 37 38 39 40 41 42 43 44 45 46 47 48 49 50

000
FPUS83 KFGF 291410
OPUFGF
PRAIRIE TO PINES WEATHER ROUNDUP
NATIONAL WEATHER SERVICE EASTERN NORTH DAKOTA/GRAND FORKS ND
900 AM CDT SAT APR 29 2017

 **SATELLITE DATA USED TO AUGMENT SKY COVER AT AUTOMATED STATIONS**
 *****  WEATHER ACROSS EASTERN NORTH DAKOTA  *****

CITY           SKY/WX    TMP DP  RH WIND       PRES   REMARKS
GRAND FORKS    FAIR      42  32  67 CALM      30.31R
GRAND FORKS AF FAIR      42  23  48 CALM      30.32R
GRAND CITY NWS NOT AVBL
BUXTON         NOT AVBL
DEVILS LAKE    FAIR      44  20  38 S8        30.30R
FARGO          FAIR      44  28  53 S5        30.33R
WAHPETON ARPT  FAIR      41  28  60 SE8       30.35R
$$

 *****  WEATHER ACROSS CENTRAL AND WESTERN NORTH DAKOTA  *****

CITY           SKY/WX    TMP DP  RH WIND       PRES   REMARKS
JAMESTOWN      FAIR      44  25  47 SW5       30.31R
BISMARCK       FAIR      37  26  64 CALM      30.30R
MINOT          FAIR      52  25  35 SW10      30.22S
MINOT AFB      FAIR      52  26  36 SW9       30.21S
GARRISON         N/A     42  27  55 CALM      30.24S
WILLISTON      FAIR      40  28  62 CALM      30.25R
DICKINSON      FAIR      46  25  43 S7        30.24R
HETTINGER      FAIR      40  26  57 CALM      30.29R
$$

 *****  OTHER OBSERVATIONS NORTHEAST NORTH DAKOTA  *****

CITY           SKY/WX    TMP DP  RH WIND       PRES   REMARKS
WALHALLA       NOT AVBL
LANGDON        FAIR      45  25  45 S5        30.28R
CAVALIER       FAIR      45  19  36 CALM      30.30R
GRAFTON        FAIR      41  23  48 CALM      30.33R
CANDO          NOT AVBL
FORT TOTTEN      N/A     45  20  37 S7        29.95S
ROLLA          FAIR      43  21  42 S12       30.25S
RUGBY          NOT AVBL
 ***** THE ABOVE OBSERVATIONS ARE NON NWS ARE NOT QUALITY
        CONTROLLED AND MAY MIS-REPORT RAIN FOR SNOW...
$$

 *****  OTHER OBSERVATIONS SOUTHEAST NORTH DAKOTA *****

CITY           SKY/WX    TMP DP  RH WIND       PRES   REMARKS
COOPERSTOWN    FAIR      41  28  60 SE6       30.32R
VALLEY CITY    FAIR      41  28  60 CALM      30.33R
OAKES          NOT AVBL
GWINNER        SUNNY     43  28  56 MISG      30.32R
SHEYENNE NWR     N/A     44  28  52 CALM      29.95S
BUFFALO        NOT AVBL
WYNDMERE         N/A     45  28  53 S6          N/A
 ***** THE ABOVE OBSERVATIONS ARE NON NWS ARE NOT QUALITY
       CONTROLLED AND MAY MIS-REPORT RAIN FOR SNOW...
$$

  *****  WEATHER ACROSS NORTHERN MINNESOTA  *****

CITY           SKY/WX    TMP DP  RH WIND       PRES   REMARKS
FLAG ISLAND    FAIR      37  25  60 CALM      30.29R
WARROAD        FAIR      39  30  70 CALM      30.31R
ROSEAU         FAIR      39  28  65 S3        30.32R
HALLOCK        FAIR      41  25  52 S3        30.32R
THF RVR FALLS  FAIR      41  20  43 SE3       30.32R
HALSTAD          N/A     46  30  55 CALM        N/A
FOSSTON        FAIR      37  25  60 CALM      30.32R
BAUDETTE       FAIR      40  25  55 VRB3      30.30R
WASKISH        FAIR      39  27  60 CALM      30.30S
CROOKSTON      FAIR      39  25  56 CALM      30.33R
$$
  *****  WEATHER ACROSS CENTRAL AND WEST MINNESOTA  *****

CITY           SKY/WX    TMP DP  RH WIND       PRES   REMARKS
BEMIDJI        FAIR      39  25  58 S3        30.31R
PARK RAPIDS    FAIR      41  27  57 S3        30.32R
WADENA         FAIR      37  27  65 SE5       30.34R
DETROIT LAKES  FAIR      43  28  56 S6        30.34R
MOORHEAD       FAIR      39  28  65 S3        30.34R
FERGUS FALLS   FAIR      43  27  52 S8        30.35R
ELBOW LAKE     FAIR      42  26  54 E9        30.35R
MORRIS MN      FAIR      43  28  56 SE9       30.34R
STAPLES        FAIR      39  27  60 S6        30.34R
WHEATON        FAIR      39  27  60 SE6       30.37R
$$
  *****  WEATHER ELSEWHERE ACROSS MINNESOTA  *****

CITY           SKY/WX    TMP DP  RH WIND       PRES   REMARKS
DULUTH         FAIR      41  23  48 SE8       30.32R
INTRNTL FALLS  FAIR      40  25  55 E5        30.30R
ELY            FAIR      37  21  52 N3        30.30R
CLOQUET        FAIR      41  19  42 SE3       30.33R
BRAINERD       FAIR      41  27  57 S7        30.35R
HIBBING        FAIR      37  26  64 SE5       30.31R
ALEXANDRIA     FAIR      41  25  53 SE12      30.35R
SAINT CLOUD    FAIR      41  26  55 SE12      30.34R
MINNEAPOLIS    PTSUNNY   41  25  53 E10       30.30S
$$

  *****  WEATHER ACROSS SOUTH DAKOTA  *****

CITY           SKY/WX    TMP DP  RH WIND       PRES   REMARKS
SIOUX FALLS    PTSUNNY   42  29  59 NE13      30.26F
BROOKINGS      FAIR      41  23  48 E14       30.30R
WATERTOWN      FAIR      41  21  44 SE13      30.32R
HURON          FAIR      43  28  55 NE8       30.33R
SISSETON         N/A     41  26  55 CALM      30.34R
ABERDEEN       FAIR      39  28  64 NE3       30.33R
MITCHELL       FAIR      39  27  62 NE8       30.31R
PIERRE         FAIR      40  22  48 CALM      30.29R
MOBRIDGE       FAIR      42  28  57 W3        30.28R
RAPID CITY     PTSUNNY   40  26  57 W6        30.29R
$$

  *****  SOME WEATHER IN NEARBY STATES *****

CITY           SKY/WX    TMP DP  RH WIND       PRES   REMARKS
GLASGOW MT     FAIR      41  35  79 SE3       30.25R
GREAT FALLS MT FAIR      40  34  79 SW8       30.19R
CHEYENNE WY    LGT SNOW  26  24  92 N10       30.19R FOG     WCI  16
SCOTTSBLUFF NE CLOUDY    34  26  72 N7        30.26R
OMAHA NE       CLOUDY    45  33  63 N10G21    30.09F
DES MOINES IA  CLOUDY    46  36  68 NE18G26   30.08F
DAVENPORT IA   CLOUDY    46  36  68 NE22G30   30.10S
CHICAGO IL     CLOUDY    45  32  60 NE21      30.16R
EAU CLAIRE WI  FAIR      41  23  48 E15       30.28S
LA CROSSE WI   FAIR      43  27  53 E12       30.27R
$$

  *****  SOME NATIONAL WEATHER *****

CITY           SKY/WX    TMP DP  RH WIND       PRES   REMARKS
LA GUARDIA NY  PTSUNNY   75  64  68 SW10      30.02R
RALEIGH NC     FAIR      79  70  74 SW8       30.21R
ATLANTA GA     PTSUNNY   75  66  73 SE8       30.16F
NEW ORLEANS LA CLOUDY    79  74  84 SE22G31   29.92S
OKLAHOMA CITY  CLOUDY    48  47  96 N20G30    29.64F
ALBUQUERQUE NM LGT RAIN  35  34  96 E7        29.89R FOG
SALT LAKE CITY FAIR      39  27  62 W12       30.15R
LOS ANGELES CA FAIR      67  16  14 N6        29.96R
BOISE ID       FAIR      37  32  82 CALM      30.24R
SEATTLE WA     MOCLDY    43  39  86 S6        30.29S
$$

*** WEATHER ACROSS MANITOBA...SASKATCHEWAN AND ONTARIO ***
                ***ONTARIO***

CITY           SKY/WX    TMP DP  RH WIND       PRES   REMARKS
GERALDTON      SUNNY     34  14  44 N8        30.25R
THUNDER BAY    SUNNY     37  19  48 N2        30.31S
SIOUX LOOKOUT  MOSUNNY   36  12  38 NW3       30.29R
TORONTO        PTSUNNY   46  30  53 NW17      30.12R
BIG TROUT LK   SUNNY     28  16  59 N7        30.31R WCI  21
PICKLE LAKE    MOSUNNY   32  12  43 VRB2      30.28R
DRYDEN         SUNNY     37  14  38 NE5       30.28R
KENORA         MOSUNNY   41  16  36 E5        30.28R
$$
                *** MANITOBA***

CITY           SKY/WX    TMP DP  RH WIND       PRES   REMARKS
BRANDON        MOSUNNY   39  25  56 CALM      30.24R
DAUPHIN        MOSUNNY   41  21  45 NW5       30.20R
ISLAND LAKE    NOT AVBL
PILOT MOUND      N/A     45  21  39 S9          N/A
THE PAS        CLOUDY    39  14  35 SE8       30.19F
THOMPSON       CLOUDY    23  16  74 E5        30.34S WCI  17
WINNIPEG       SUNNY     43  18  36 S3        30.29S
LYNN LAKE      PTSUNNY   28  23  80 SE10      30.26S WCI  19
CHURCHILL      FLURRIES   7   5  92 NW10      30.43R WCI  -8
GILLAM         FLURRIES  18  10  73 N6        30.40R WCI   9
$$
                ***SASKATCHEWAN***

CITY           SKY/WX    TMP DP  RH WIND       PRES   REMARKS
ESTEVAN        MOSUNNY   43  37  81 S2        30.22S
KINDERSLEY     MOSUNNY   32  30  93 SW5       30.16S
LLOYDMINSTER   PTSUNNY   39  28  65 W7        30.13S
PRINCE ALBERT  CLOUDY    39  34  81 NE9       30.13S
REGINA         SUNNY     39  36  87 W7        30.21R
YORKTON        SUNNY     45  37  76 SW12      30.17R



USA.gov is the U.S. government's official web portal to all federal, state and local government web resources and services.